Temp_Advection
nan nan nan nan nan nan nan nan nan nan nan nan nan nan nan nan nan nan nan nan nan nan nan nan nan nan nan nan nan nan nan nan nan nan nan nan nan nan nan nan nan nan nan nan nan nan nan
nan -0 -1 -1 -1 -1 -1 -1 -2 -2 -1 -0 -0 -0 0 0 0 0 0 0 0 -0 0 0 0 0 0 -0 -1 0 0 0 0 0 0 0 -0 0 0 0 -0 -0 -0 -0 -0 -0 nan
nan -0 -0 -1 -1 -1 -1 -1 -1 -2 -1 -1 -0 -0 0 -0 0 0 0 0 0 0 0 0 0 0 -0 -1 -0 0 0 0 0 0 -0 0 -0 0 0 -0 -0 0 0 -0 -0 -0 nan
nan -0 -0 -0 -0 -0 -1 -1 -1 -1 -2 -1 -0 -0 -0 0 -0 0 0 0 0 0 0 0 0 -0 -0 -0 0 -0 0 0 0 0 0 -0 0 0 -0 -0 -0 0 0 -0 -0 -0 nan
nan -0 -0 -0 -0 -0 -0 -0 -0 -1 -1 -2 -1 -0 -0 0 0 0 0 0 0 0 0 0 0 -0 -0 -0 -0 0 0 0 -0 0 0 0 0 0 0 0 -0 0 0 -0 -0 -0 nan
nan -0 -0 -0 -0 -0 -0 -0 -1 -0 -1 -1 -2 -1 -0 -0 0 0 0 0 0 0 0 0 0 -0 -0 -0 0 0 0 0 0 0 0 0 0 0 0 0 -0 -0 -0 0 0 -0 nan
nan 0 -0 -0 -0 -0 -0 -0 -1 -1 -0 -0 -1 -2 -1 -0 0 0 0 0 -0 -0 0 -0 -0 -0 0 0 0 0 0 0 0 0 0 0 0 0 0 0 -0 0 0 -0 -0 0 nan
nan -0 -0 -0 -0 -0 -0 -0 -0 -1 -1 -0 -0 -1 -1 -0 -0 0 -0 -0 -0 -0 -0 -1 0 0 0 0 0 0 0 0 0 0 0 0 -0 -0 0 0 0 -0 -0 -0 -0 0 nan
nan -0 -0 -0 -0 -0 -0 -0 -0 -0 -1 -1 -1 -1 -1 -1 -0 0 1 0 0 0 -0 -0 1 -0 -0 0 -0 -0 -0 -0 -0 -0 0 -0 -0 -0 0 0 0 0 -0 -0 -0 -0 nan
nan -0 -0 -0 -0 -0 -0 -0 -0 -0 -1 -1 -1 -1 -1 -0 -0 1 -0 0 0 0 -0 -0 0 -0 0 -0 -0 -0 -0 -0 -0 -0 -0 -0 -0 0 0 -0 -0 -0 -0 -0 0 0 nan
nan 0 -0 -0 -0 -0 -0 -0 -0 -0 -0 -1 -1 -1 -0 -0 -0 -0 -1 -0 -0 0 0 0 -0 0 0 0 -0 0 0 0 -0 -0 -0 -0 0 0 -0 -0 -0 -0 -0 -0 0 0 nan
nan -0 -0 -0 -0 -0 -0 -0 -0 -0 -1 -1 -1 -0 0 -1 -0 0 0 -0 -0 -0 -1 0 -0 -0 -0 -0 -0 -0 0 0 0 -0 0 0 -0 -0 -0 -0 -0 0 0 0 0 -0 nan
nan -0 -0 -0 -0 -0 -0 0 0 -0 -0 -1 -1 -0 -0 -1 0 1 1 -0 0 -0 0 -0 -0 0 0 -0 0 0 -0 0 -0 0 0 0 0 -0 -0 0 0 0 0 0 -0 -0 nan
nan -0 -0 -0 -0 -0 -0 -0 0 -0 -0 -0 -0 0 -0 -0 0 0 0 -0 0 0 -0 0 -0 0 0 0 0 0 0 0 -0 0 0 0 -0 0 0 -0 -0 0 0 -0 0 0 nan
nan 0 -0 -0 -0 -0 -0 -0 -0 0 -1 -0 -0 -0 -0 0 1 1 -0 -0 -0 -0 -0 0 -0 -0 -0 -0 0 0 0 -0 -0 0 -0 0 0 -0 -0 0 -0 -0 -0 0 0 0 nan
nan -0 0 -0 -0 -0 -0 -0 -0 -0 -1 -0 -0 -0 -0 -0 1 1 0 -0 0 -0 -0 -0 -0 -0 -0 -0 0 0 0 -0 0 0 -0 0 0 0 0 0 -0 0 0 0 0 -0 nan
nan -0 0 0 -0 -0 -0 -0 -0 0 -0 -0 -0 -0 -0 -0 0 0 -0 0 -0 0 -0 -0 -0 0 0 -0 -0 0 0 -0 0 0 1 -0 0 -0 -0 -0 -0 -0 -0 -0 0 0 nan
nan -0 0 0 0 -0 -0 -0 -0 0 -0 -1 0 0 -0 -1 -0 0 0 0 -0 0 0 0 -0 -0 -0 -0 0 0 0 -0 -0 -0 0 0 0 -0 -1 -0 -0 0 0 -0 -0 -0 nan
nan -0 -0 0 0 -0 -0 -0 -0 -0 0 -0 0 0 0 -0 -0 0 0 0 -0 -0 -0 0 0 -0 0 0 0 0 -0 -0 0 -0 -0 -0 0 -0 -0 -0 0 0 -1 -0 -0 0 nan
nan -0 -0 -0 0 0 -0 -0 -0 -0 0 1 0 0 -0 0 0 -0 -0 -0 0 0 0 0 0 0 0 0 0 0 -0 -0 -0 -0 -0 -0 -0 -0 -1 0 0 -0 0 1 0 -0 nan
nan -0 -0 0 0 0 -0 -0 -0 -0 -0 0 -0 -0 -0 -0 -0 0 -0 -0 -0 -0 0 0 0 0 0 0 -0 -0 -0 -0 -0 0 0 0 0 0 -0 0 0 -0 -0 0 -0 -0 nan
nan -0 0 0 -0 -0 -0 -0 -0 -1 0 0 0 -0 -0 -0 -0 0 0 -0 -0 -0 0 -0 0 0 0 -0 -0 -0 -0 -0 -0 -0 -0 0 0 0 -1 0 0 -1 -0 -0 -0 -0 nan
nan -0 -0 0 0 -0 -0 -0 -0 -0 -0 -0 -0 -0 -0 -0 -0 -0 -0 -0 -0 0 -0 0 0 0 -0 -0 -1 -1 -0 0 -0 0 0 0 -0 -0 -0 0 0 -0 0 -0 -0 -0 nan
nan -0 -0 -0 0 0 -0 -0 -0 -0 0 -0 -0 -0 0 -0 -0 -0 -0 -0 -0 -0 0 0 -0 -0 -0 -0 -0 0 1 0 -0 -0 0 0 -0 -0 -0 -0 0 0 0 0 -0 -0 nan
nan -0 -0 -0 -0 0 -0 -0 -0 -0 -0 0 -0 -0 0 0 -0 -0 -0 0 -0 0 0 0 0 0 0 -0 0 0 -0 -0 -0 -0 0 -0 -0 -0 -0 0 -0 0 -0 -0 -0 -0 nan
nan -0 -0 -0 -0 0 -0 -0 -0 -0 -0 -0 -0 -0 -0 0 -0 -0 0 -0 -0 0 0 0 0 0 0 -0 -0 -0 -0 -0 -0 0 0 -0 -0 -0 -0 -0 -0 -0 0 -0 -0 0 nan
nan 0 -0 0 0 0 0 -0 -0 -0 -0 -1 -0 -0 0 0 0 0 -0 -0 0 -0 0 0 0 0 -0 -0 -0 0 -0 -0 -0 0 -0 -0 -0 -0 -0 0 -0 -0 0 -0 0 0 nan
nan -0 -0 0 0 0 0 -0 -0 -0 -1 -0 -0 -0 0 -0 0 0 -0 -0 -0 -0 -0 0 -0 -0 -0 0 0 -0 -0 0 -0 0 0 0 -0 -0 -0 0 -0 -0 -0 -0 0 -0 nan
nan nan nan nan nan nan nan nan nan nan nan nan nan nan nan nan nan nan nan nan nan nan nan nan nan nan nan nan nan nan nan nan nan nan nan nan nan nan nan nan nan nan nan nan nan nan nan
Wind_Speed
25 25 26 25 25 26 26 25 20 16 22 22 22 22 20 18 18 15 13 10 8 6 4 5 6 7 9 9 12 4 4 4 8 20 18 11 7 4 4 3 2 4 3 7 7 11 16
27 27 26 27 28 28 28 27 25 23 20 23 22 23 22 18 18 16 14 12 9 7 5 5 6 6 8 4 9 16 8 5 6 13 20 17 6 7 3 3 3 2 5 8 8 10 11
27 28 29 30 29 29 29 28 27 24 23 20 24 22 24 22 17 16 14 12 10 7 6 6 6 8 11 17 8 6 16 8 7 8 9 12 13 5 1 2 6 5 5 6 7 10 7
27 28 29 30 30 31 28 28 28 27 25 21 20 24 26 24 19 16 13 13 8 8 6 6 6 6 8 6 12 14 12 16 12 9 7 4 2 8 3 6 3 3 1 3 4 6 8
28 30 31 30 30 31 31 28 28 27 24 27 21 16 24 24 21 16 11 12 12 10 7 6 6 6 8 6 9 10 17 11 19 13 11 5 5 4 3 1 4 4 8 5 6 3 4
28 30 31 32 32 33 31 30 29 28 27 26 26 25 25 25 23 20 12 14 12 9 7 6 9 5 8 2 2 3 12 12 8 9 6 7 6 3 4 5 6 4 7 10 8 3 5
28 29 30 33 34 33 31 31 30 28 27 26 24 28 24 26 25 23 22 18 8 4 15 10 6 7 1 2 4 3 6 16 10 6 5 3 3 7 10 8 10 4 3 9 4 7 7
28 30 28 32 30 34 34 31 30 30 26 25 23 26 20 27 25 29 28 22 15 5 3 24 12 14 5 6 2 4 7 10 6 4 4 0 10 8 5 4 5 8 13 19 13 12 10
31 31 33 34 31 33 32 35 32 31 27 25 24 23 24 30 26 35 32 26 19 10 1 5 20 21 12 12 4 7 12 8 4 5 7 7 3 7 9 6 5 6 11 8 14 9 12
32 33 33 34 34 33 32 33 35 31 29 26 25 23 23 26 26 38 34 28 17 10 4 4 4 5 12 13 6 20 17 9 2 9 5 8 10 10 5 5 8 13 7 14 13 6 7
32 33 34 34 34 34 33 32 34 35 29 28 26 24 27 16 13 42 33 31 20 9 1 3 5 6 9 15 2 2 20 13 7 6 5 5 4 7 14 12 7 4 6 8 10 8 6
32 34 34 33 35 33 33 32 36 37 40 31 26 24 21 22 23 40 33 29 21 5 6 6 5 6 6 6 1 4 9 10 2 8 12 11 4 3 6 7 14 3 4 4 3 4 11
33 33 34 32 33 33 33 34 36 41 43 24 19 19 20 23 27 40 35 34 4 4 1 6 5 5 6 6 4 4 6 8 5 5 7 4 12 6 4 4 7 9 3 3 5 6 7
32 34 34 32 32 33 32 32 36 45 29 17 7 10 18 32 25 40 46 4 4 5 5 7 6 8 6 7 4 4 4 7 10 6 1 2 5 12 12 16 7 17 10 5 5 5 4
34 33 33 31 31 32 30 32 37 42 26 15 5 4 13 17 40 41 31 3 7 7 7 8 11 6 6 6 3 7 9 5 7 15 6 4 6 2 5 6 9 5 11 14 5 3 3
32 32 33 31 31 32 30 31 36 37 30 10 9 3 9 20 41 43 10 5 3 4 7 5 5 5 6 7 7 7 6 4 6 12 11 1 6 3 3 3 11 8 1 4 6 5 5
33 33 33 30 29 30 28 30 35 35 34 20 9 5 4 17 38 23 5 3 3 5 9 4 4 5 4 5 9 5 4 4 6 5 14 6 4 1 5 9 11 8 9 6 3 4 4
31 33 32 29 28 28 27 30 33 34 34 27 7 3 14 34 7 3 5 6 5 5 3 2 3 4 6 8 6 8 8 6 9 11 10 9 3 6 15 10 16 18 13 17 7 6 4
32 32 30 29 27 28 27 29 33 34 33 30 9 2 34 45 4 3 3 3 4 4 4 3 3 3 6 6 5 8 3 7 13 9 11 9 5 4 4 3 8 10 18 20 19 8 14
33 32 30 28 26 28 26 28 32 36 34 23 4 2 6 13 2 11 7 5 4 2 4 4 2 4 5 6 9 3 5 5 19 14 12 16 5 7 12 10 3 6 16 18 17 10 14
31 31 29 27 25 27 26 27 31 34 33 7 3 2 4 5 3 8 6 8 9 5 2 9 5 12 7 5 6 7 8 4 4 12 8 7 7 11 21 23 18 12 12 20 19 23 12
31 31 28 27 24 27 26 25 30 31 24 2 2 3 9 11 15 9 5 7 11 7 8 5 8 7 11 6 7 8 5 4 5 4 8 5 5 3 17 19 18 24 23 18 21 21 21
30 29 26 26 25 27 24 23 24 25 24 8 7 2 7 14 9 8 7 7 11 8 10 12 12 10 10 15 22 22 4 8 4 2 5 3 3 3 9 6 12 5 10 18 13 11 17
30 28 26 25 24 26 24 24 25 24 22 19 8 6 3 4 9 9 11 8 8 12 6 4 17 6 3 2 3 13 15 15 17 15 14 5 3 3 6 9 4 4 4 5 13 9 16
28 28 25 24 23 25 24 24 25 23 23 21 7 4 2 3 5 9 9 8 8 9 10 12 9 10 5 7 2 3 2 3 7 10 12 14 3 3 4 6 6 4 1 3 5 6 12
27 26 25 23 22 21 24 21 22 24 23 15 2 9 2 3 7 7 9 8 3 3 4 5 6 12 8 2 3 3 3 3 3 2 2 9 10 2 3 4 4 4 5 3 3 5 11
28 24 24 23 22 21 24 18 18 22 23 16 4 3 1 2 5 8 3 4 7 4 1 1 2 4 17 5 3 2 2 3 2 3 3 2 3 4 4 3 7 5 8 6 4 4 3
26 22 22 22 22 22 23 19 19 21 22 16 3 4 3 3 1 5 6 6 5 5 3 3 2 4 3 4 2 2 3 4 2 3 4 6 3 3 2 2 4 5 4 2 3 4 5
25 22 21 20 20 20 22 19 18 19 21 13 5 8 7 1 2 6 8 9 11 9 11 8 1 2 6 3 3 3 2 1 2 3 2 3 5 3 6 5 4 3 3 5 4 4 4
Wind_Direction
352 349 346 341 335 328 299 292 297 304 275 272 261 268 264 275 289 278 261 253 251 250 255 253 239 236 217 217 232 176 179 196 211 215 211 206 205 174 196 220 269 207 233 261 284 294 281
348 349 345 341 339 335 334 319 303 288 325 268 264 255 262 264 276 278 260 248 241 244 243 247 237 227 223 233 252 228 191 147 156 192 215 214 205 211 258 246 191 301 279 274 284 269 279
349 346 342 340 336 334 331 328 320 287 292 313 261 254 252 255 256 273 261 241 237 238 234 238 244 234 236 246 245 238 205 189 152 164 200 218 218 192 166 230 311 279 307 297 224 236 246
346 344 341 338 333 330 330 324 321 321 283 290 307 251 243 246 248 260 258 235 225 237 228 233 251 251 247 255 236 231 211 210 181 175 166 170 227 224 229 290 313 292 267 302 317 228 231
344 343 338 337 335 329 327 325 319 314 314 281 281 291 239 240 240 242 247 218 217 225 217 221 253 257 263 249 245 227 220 201 219 231 235 237 184 193 165 177 285 184 261 255 316 278 261
343 339 340 337 333 327 322 323 321 312 308 306 276 276 240 232 233 229 213 202 206 210 209 212 234 274 250 234 192 190 206 201 172 178 179 189 195 179 163 184 224 240 239 257 258 284 353
344 340 340 336 334 330 326 321 317 315 309 302 288 282 259 225 227 217 188 184 172 216 205 200 214 214 110 142 164 190 210 179 170 157 170 168 179 207 204 220 244 258 266 267 266 294 316
341 338 335 333 334 327 323 324 319 318 315 296 299 276 268 221 225 212 198 182 193 149 208 231 223 234 172 129 145 201 164 161 156 171 122 95 240 222 215 202 227 247 265 266 275 251 261
336 335 332 332 331 329 323 321 326 321 315 304 300 292 273 221 223 205 195 199 191 198 67 259 231 229 216 231 243 207 183 181 144 147 190 204 205 205 186 201 212 219 234 252 256 293 270
336 333 332 331 330 326 321 316 322 322 316 305 290 289 256 230 221 196 184 189 176 183 60 244 204 234 202 222 278 226 202 172 163 192 189 246 243 243 198 204 192 255 198 240 252 252 255
334 334 330 330 328 323 322 322 321 322 313 304 288 283 248 233 242 179 185 191 188 160 11 156 148 151 164 163 138 155 205 194 178 187 160 224 196 208 226 223 173 254 179 213 229 235 273
335 331 328 330 328 326 326 323 322 317 314 308 277 268 262 257 222 181 178 169 141 61 244 165 131 174 151 202 177 111 175 200 238 224 228 242 195 197 207 228 213 196 237 266 273 231 248
332 334 329 328 327 328 330 325 322 321 325 308 274 259 243 216 184 179 170 147 104 185 52 167 167 166 193 165 205 171 173 190 193 199 223 228 233 214 207 203 189 195 165 217 224 212 251
332 333 332 331 329 331 331 326 328 333 335 326 276 225 218 225 196 173 153 123 131 171 184 140 133 143 171 178 213 210 201 221 221 207 282 250 293 197 194 206 179 199 201 221 235 228 255
329 331 334 332 332 334 331 331 338 339 340 348 301 239 232 211 180 171 153 171 184 183 164 145 145 160 195 185 176 195 219 226 224 195 203 220 254 2 205 203 176 167 213 221 265 198 241
332 334 335 334 334 336 332 335 338 340 344 336 330 244 243 220 172 159 163 175 140 163 124 141 137 186 168 165 180 188 190 220 219 191 189 293 285 199 196 175 259 210 239 176 200 228 234
334 335 335 334 336 336 333 334 339 343 343 344 225 166 200 179 166 158 190 115 159 165 127 140 165 152 158 164 195 192 230 269 201 186 175 181 215 323 143 207 200 197 223 217 260 200 201
330 334 336 335 337 337 333 335 341 346 341 358 140 125 176 171 150 183 148 163 130 143 91 112 111 110 172 175 202 208 225 230 180 142 181 198 236 232 235 218 208 216 222 214 217 202 232
332 336 337 338 339 336 335 335 342 344 335 335 144 138 172 173 148 142 156 99 100 131 173 138 135 179 190 202 217 207 209 244 179 168 173 165 224 294 280 257 233 225 227 226 234 258 232
335 337 337 340 339 339 335 338 346 345 340 353 133 110 70 167 144 155 148 138 113 110 143 119 152 176 204 213 210 249 232 262 192 193 188 169 213 221 252 255 201 219 221 216 224 231 237
337 337 337 339 341 338 338 340 351 347 344 125 128 149 165 170 223 166 123 154 178 151 178 183 215 229 211 216 215 222 229 272 193 207 181 180 250 235 254 260 252 240 223 216 217 235 238
336 337 340 341 342 341 342 345 354 352 17 31 55 187 170 152 153 170 142 175 179 186 178 203 227 207 223 220 219 206 223 165 235 148 163 208 272 269 273 270 255 251 241 221 217 223 242
339 339 342 339 342 340 344 345 356 355 5 359 337 241 115 167 155 160 193 178 192 175 194 213 209 219 226 235 235 256 230 274 244 216 216 223 249 269 282 314 293 267 246 226 225 207 208
338 341 342 340 342 340 345 343 351 355 358 352 324 307 153 158 173 190 162 194 205 195 212 237 220 204 213 275 309 247 251 250 259 258 223 216 207 232 285 309 329 284 333 270 214 216 209
339 338 342 339 343 340 344 342 347 355 353 352 325 311 98 126 179 165 158 187 209 210 209 236 219 208 217 322 276 244 223 257 244 230 202 209 197 284 292 315 279 308 158 111 177 239 207
337 335 339 340 342 339 344 340 344 354 351 341 286 206 294 128 197 163 183 178 168 214 176 207 224 233 226 253 256 234 205 218 274 269 257 200 220 242 330 313 338 299 354 193 200 11 180
335 332 333 338 334 339 339 338 347 351 348 341 245 354 77 101 155 147 151 171 164 124 192 156 223 224 195 179 229 198 250 175 259 269 151 178 210 226 254 269 288 280 311 160 42 269 353
334 334 333 334 335 337 336 342 343 347 344 351 265 230 36 23 159 195 185 156 145 166 167 186 189 221 168 159 198 233 191 208 223 232 185 192 186 199 124 275 309 352 334 76 258 298 290
331 332 328 332 334 334 331 341 335 346 340 348 333 186 210 323 296 232 235 237 229 234 203 189 244 279 198 160 191 248 230 134 207 269 13 252 186 201 176 219 248 301 280 315 313 307 293
Height
1492 1489 1485 1483 1480 1476 1472 1470 1468 1466 1466 1466 1466 1466 1466 1467 1468 1467 1467 1467 1467 1467 1467 1470 1470 1471 1472 1473 1471 1471 1471 1469 1471 1473 1478 1482 1485 1487 1489 1488 1487 1487 1485 1484 1484 1484 1483
1493 1488 1484 1481 1477 1473 1469 1465 1464 1463 1459 1460 1461 1462 1462 1463 1465 1465 1465 1465 1465 1465 1466 1468 1469 1470 1472 1472 1467 1469 1471 1470 1470 1473 1477 1480 1482 1485 1486 1486 1487 1484 1483 1482 1481 1481 1481
1492 1488 1484 1479 1474 1470 1466 1463 1459 1458 1456 1454 1455 1456 1458 1459 1460 1461 1462 1463 1463 1464 1466 1468 1468 1468 1469 1464 1464 1465 1469 1469 1471 1473 1475 1478 1480 1483 1484 1484 1484 1483 1484 1481 1478 1477 1476
1490 1486 1482 1477 1473 1467 1463 1459 1456 1453 1451 1449 1448 1450 1453 1454 1456 1458 1459 1461 1462 1463 1465 1466 1467 1467 1465 1461 1462 1464 1466 1468 1471 1473 1475 1477 1479 1481 1483 1483 1482 1483 1484 1484 1474 1472 1472
1489 1483 1479 1473 1469 1466 1460 1456 1452 1449 1446 1445 1444 1442 1445 1449 1451 1454 1456 1459 1460 1462 1464 1465 1467 1466 1462 1460 1460 1462 1464 1466 1469 1472 1474 1477 1479 1480 1482 1482 1483 1480 1480 1483 1479 1470 1470
1486 1481 1476 1471 1467 1462 1457 1453 1449 1445 1442 1439 1437 1437 1438 1442 1446 1450 1453 1456 1458 1461 1463 1465 1465 1469 1460 1459 1459 1459 1461 1465 1468 1470 1474 1476 1478 1479 1480 1481 1482 1477 1475 1474 1479 1473 1471
1485 1479 1474 1469 1463 1458 1453 1448 1443 1440 1436 1433 1432 1432 1431 1435 1440 1444 1448 1453 1460 1462 1459 1457 1457 1456 1457 1458 1458 1459 1460 1463 1467 1470 1474 1475 1479 1476 1474 1476 1475 1477 1482 1479 1478 1474 1476
1481 1476 1471 1466 1462 1455 1449 1444 1439 1435 1430 1428 1426 1426 1426 1429 1433 1436 1441 1443 1448 1453 1455 1453 1454 1455 1456 1456 1458 1459 1460 1464 1467 1471 1473 1477 1473 1473 1474 1477 1479 1479 1478 1474 1474 1472 1472
1478 1472 1467 1462 1457 1451 1445 1440 1434 1430 1426 1423 1420 1418 1420 1423 1425 1426 1432 1441 1443 1449 1452 1450 1448 1450 1453 1457 1457 1457 1460 1462 1465 1471 1473 1473 1466 1465 1471 1474 1478 1478 1479 1478 1476 1471 1465
1474 1469 1463 1458 1453 1447 1441 1435 1430 1425 1421 1417 1415 1414 1414 1416 1420 1418 1426 1438 1442 1447 1462 1449 1447 1446 1448 1454 1455 1453 1456 1460 1465 1468 1471 1469 1465 1466 1469 1470 1475 1474 1471 1471 1471 1477 1474
1472 1466 1460 1455 1449 1442 1436 1430 1424 1419 1414 1410 1408 1407 1407 1408 1407 1411 1421 1433 1442 1446 1474 1446 1445 1446 1446 1450 1452 1451 1454 1458 1460 1464 1466 1459 1462 1465 1467 1465 1469 1467 1466 1468 1469 1471 1472
1469 1462 1455 1450 1444 1438 1431 1425 1419 1412 1406 1400 1398 1400 1403 1404 1405 1406 1416 1431 1439 1458 1455 1440 1442 1444 1446 1448 1448 1450 1453 1457 1457 1459 1458 1456 1459 1461 1460 1459 1462 1463 1465 1464 1467 1468 1454
1463 1457 1451 1445 1439 1433 1427 1420 1412 1403 1394 1389 1388 1391 1396 1401 1396 1402 1413 1426 1443 1443 1436 1438 1438 1441 1442 1445 1447 1448 1451 1452 1454 1455 1454 1455 1453 1455 1456 1459 1459 1463 1465 1462 1459 1455 1443
1460 1453 1447 1441 1435 1429 1423 1416 1407 1397 1388 1384 1383 1386 1390 1395 1394 1397 1409 1423 1438 1426 1433 1428 1435 1440 1443 1444 1447 1448 1448 1450 1449 1452 1454 1452 1454 1447 1447 1446 1450 1453 1457 1454 1447 1448 1456
1456 1449 1444 1437 1432 1425 1419 1411 1403 1394 1386 1382 1383 1383 1385 1390 1394 1395 1409 1421 1418 1418 1420 1425 1435 1438 1445 1442 1444 1446 1445 1445 1442 1447 1452 1451 1449 1440 1441 1442 1445 1450 1449 1441 1445 1445 1441
1452 1445 1440 1434 1428 1422 1415 1408 1401 1393 1384 1382 1383 1383 1383 1387 1391 1397 1409 1411 1411 1411 1415 1421 1427 1429 1430 1435 1441 1442 1440 1436 1436 1438 1442 1446 1446 1438 1439 1443 1440 1439 1442 1445 1443 1437 1429
1449 1442 1437 1431 1425 1419 1413 1405 1399 1391 1380 1373 1378 1383 1383 1388 1396 1400 1405 1404 1410 1412 1413 1420 1423 1427 1427 1433 1434 1436 1438 1433 1432 1435 1439 1443 1449 1444 1440 1436 1431 1438 1437 1438 1435 1433 1441
1445 1439 1434 1428 1422 1416 1410 1403 1396 1389 1381 1379 1379 1382 1384 1391 1397 1401 1401 1405 1407 1412 1415 1417 1418 1423 1425 1428 1433 1435 1436 1430 1428 1433 1439 1436 1440 1434 1425 1418 1417 1421 1420 1422 1421 1424 1423
1442 1436 1431 1425 1420 1414 1408 1401 1393 1387 1382 1380 1380 1380 1382 1387 1394 1400 1402 1403 1406 1413 1415 1417 1419 1422 1424 1427 1430 1429 1430 1423 1428 1428 1430 1433 1434 1432 1420 1418 1416 1418 1411 1407 1407 1407 1411
1439 1434 1428 1423 1418 1412 1406 1399 1391 1382 1375 1373 1377 1378 1381 1388 1392 1394 1400 1403 1409 1411 1413 1415 1419 1422 1425 1424 1425 1425 1427 1422 1420 1421 1425 1427 1426 1420 1410 1395 1409 1404 1399 1402 1406 1402 1397
1436 1431 1426 1421 1416 1411 1405 1397 1391 1384 1374 1373 1377 1381 1382 1388 1393 1392 1396 1401 1407 1411 1413 1415 1417 1418 1420 1421 1423 1419 1421 1420 1417 1418 1421 1423 1415 1413 1401 1395 1397 1392 1388 1390 1394 1387 1393
1433 1429 1424 1419 1414 1411 1406 1400 1391 1384 1375 1376 1374 1377 1382 1383 1391 1394 1397 1401 1404 1408 1411 1412 1414 1415 1417 1416 1414 1413 1412 1415 1414 1414 1418 1418 1410 1410 1393 1388 1384 1376 1373 1375 1375 1381 1384
1431 1427 1422 1417 1411 1408 1405 1401 1396 1389 1384 1381 1378 1376 1378 1383 1387 1393 1395 1398 1400 1404 1406 1406 1410 1413 1413 1411 1412 1407 1409 1410 1411 1412 1414 1414 1411 1405 1382 1380 1373 1360 1358 1359 1362 1370 1376
1429 1425 1421 1416 1410 1405 1402 1399 1394 1389 1385 1382 1380 1379 1379 1383 1387 1389 1392 1396 1398 1399 1400 1403 1407 1407 1406 1406 1405 1406 1407 1407 1405 1402 1406 1407 1406 1405 1388 1376 1358 1355 1353 1350 1354 1359 1365
1427 1423 1419 1415 1411 1405 1400 1396 1392 1389 1385 1381 1379 1378 1379 1381 1384 1388 1391 1394 1396 1398 1399 1401 1401 1402 1404 1404 1403 1405 1404 1400 1393 1392 1395 1399 1400 1397 1384 1376 1365 1349 1355 1357 1359 1355 1356
1425 1421 1416 1413 1410 1407 1401 1398 1393 1389 1385 1380 1379 1379 1379 1380 1384 1384 1388 1391 1393 1395 1396 1396 1398 1400 1402 1404 1400 1395 1397 1395 1392 1388 1389 1393 1397 1398 1392 1385 1375 1358 1355 1352 1352 1350 1353
1421 1418 1414 1410 1407 1404 1401 1397 1394 1390 1385 1382 1378 1377 1379 1380 1381 1383 1386 1388 1389 1392 1395 1395 1396 1396 1397 1399 1398 1395 1394 1393 1391 1385 1389 1391 1391 1390 1388 1386 1378 1361 1356 1356 1358 1364 1351
1419 1415 1412 1408 1404 1401 1398 1394 1391 1388 1384 1380 1377 1379 1380 1380 1382 1382 1384 1385 1388 1390 1392 1393 1394 1392 1392 1394 1396 1392 1390 1388 1389 1381 1383 1387 1386 1384 1386 1389 1385 1362 1358 1358 1360 1354 1353
1416 1412 1409 1405 1402 1399 1395 1393 1391 1388 1384 1380 1377 1378 1380 1382 1383 1382 1383 1383 1384 1386 1388 1390 1389 1387 1387 1388 1392 1388 1386 1391 1391 1390 1383 1387 1380 1382 1383 1381 1366 1365 1363 1360 1358 1356 1352